STARLINK-1303, 45396

Orbit data source: Space-Track

STARLINK-1303, 45396 is a payload satellite owned by SpaceX/Seattle (US) in LEO that was launched on Wed, 18 Mar 2020 UTC via an FALCON 9 launch vehicle from the Air Force Eastern Test Range (AFETR). Payloads include a variety of satellites, spacecraft, and rockets equipped with specific instruments for various scientific and technological missions. These include communications satellites like Starlink; space stations such as the ISS; scientific satellites like the Hubble; Earth observation satellites from companies like Planet Labs, Umbra, and HawkEye 360; GPS; miniature CubeSats for education and research; and military/defense satellites.

Loading next visibility...
STARLINK-1303 details
Identifier
45396, 2020-019AN
Orbit
LEO
Last TLE update8 hours ago
Origin
Flag of USSpaceX/Seattle (US)
ManufacturerSpaceX/Seattle
MissionPartially operational Commercial Communications
Bus & MotorSTARLINK, Unknown motor
Mass260 kg wet, ~248 kg dry
Launch date (UTC)
2020-03-18 (5 years ago)
Launch vehicle
FALCON 9
Launch site
Air Force Eastern Test Range (AFETR)
Object type
Payload
Rocket body
Debris
Shape & HBRBox + 1 Pan, 8.86 m
Radar Cross Section13.562 m², Large (>1 m²)

Expand to show TLE details & history

TLE from 8 hours ago
0 STARLINK-1303
1 45396U 20019AN  24361.13077137 -.00000201  00000-0  46494-5 0  9990
2 45396  53.0546 305.2849 0001622 111.3272 248.7907 15.45724810263769
Epoch: 2024-12-26T03:08Z
Definitive object data (Epoch: 2024-12-26T03:08:18.646Z)
Latitude-0.00005°
Longitude163.0926°
Altitude430.543 km
Speed7.654 km/s
True Right ascension20h 21m 08s
True Declination0° 00' 00"
Sunlit
Object was in daylight at TLE epoch
Visualization TLE readout
Latitude-22.61172°
Longitude143.42626°
Altitude436.527 km
Speed7.649 km/s
Apparent Right ascension20h 22m 52s
Apparent Declination-32° 56' 03"
Sunlit
Object is in daylight
Visualization observer readout
Local Sidereal Time10:07:41
Azimuth79.869° E
Elevation-67.886°
Doppler factor1
Orbital elements
Apogee altitude430.629 km
Perigee altitude428.42 km
Semi-major axis6,807.661 km
Eccentricity0.0001622
Inclination53.0546°
RAAN305.2849°
Arg. of periapsis111.3272°
True anomaly248.77337°
Mean anomaly248.7907°
Eccentric anomaly248.78204°
Mean motion3.86408 °/min
BSTAR0.0000046494
Orbital period93.17 mins
Loading maneuver chart data...
Loading historical data...
Loading historical data...
Loading historical data...
Loading historical data...
Loading historical data...
Loading historical data...
Loading historical data...

STARLINK-1303 Visibility forecast

Observer location: undefined°, undefined

Span
Click to sort rows by Start time (UTC) header in descending order
Start Az.
Max El. time (UTC)
Max El. Az.
Max El.
End time (UTC)
End Az.
4 mins2024-12-26 23:31:26.716Z248.988° W2024-12-26 23:33:26.716Z358.232° N40.069°2024-12-26 23:35:26.716Z40.928° NE
4 mins2024-12-27 06:02:26.716Z305.837° NW2024-12-27 06:04:26.716Z148.4° SSE42.1°2024-12-27 06:06:26.716Z134.563° SE
|